Regional Weather Roundup
Issued by NWS

Home | Current Version | Previous Version | Text Only | Print | Product List | Glossary Off
Versions: 1 2 3 4 5 6 7 8 9 10 11 12 13 14 15 16 17 18 19 20 21 22 23 24 25 26 27 28 29 30 31 32 33 34 35 36 37 38 39 40 41 42 43 44 45 46 47 48 49 50

000
ASUS43 KFSD 281310
RWRSD

WEATHER ROUNDUP FOR SOUTH DAKOTA
NATIONAL WEATHER SERVICE SIOUX FALLS SD
800 AM CDT THU MAY 28 2015

NOTE: "FAIR" INDICATES FEW OR NO CLOUDS BELOW 12,000 FEET WITH NO
SIGNIFICANT WEATHER AND/OR OBSTRUCTIONS TO VISIBILITY.


SDZ001>005-009-010-012>017-281400-
NORTHWEST AND NORTH CENTRAL SOUTH DAKOTA

CITY           SKY/WX    TMP DP  RH WIND       PRES   REMARKS
BUFFALO          N/A     57  54  89 W6        29.86S
FAITH            N/A     56  54  93 N9        29.88S
MOBRIDGE       PTSUNNY   62  59  90 S10       29.88R
$$

SDZ012>016-024>037-041>051-057-063-072>074-281400-
SOUTHWEST AND SOUTH CENTRAL SOUTH DAKOTA

CITY           SKY/WX    TMP DP  RH WIND       PRES   REMARKS
RAPID CTY ARPT SUNNY     56  54  93 W5        29.93R
PIERRE         MOSUNNY   62  57  83 S13       29.91R
CUSTER         SUNNY     51  49  92 W3        30.02R
ELLSWORTH AFB  MOSUNNY   56  56 100 SW2       29.93R
PHILIP         MOSUNNY   57  55  93 CALM      29.91S
PINE RIDGE     MOSUNNY   60  52  74 CALM      29.96R
SPEARFISH      FAIR      55  50  82 NW6       29.98R
WINNER         FAIR      67  57  70 S15G23    29.94F
$$

SDZ004>011-016>023-039-040-281400-
NORTHEAST SOUTH DAKOTA

CITY           SKY/WX    TMP DP  RH WIND       PRES   REMARKS
ABERDEEN       PTSUNNY   64  57  78 S15       29.92R
WATERTOWN      MOSUNNY   65  54  67 S10       29.97F
BROOKINGS      CLOUDY    64  54  68 S9        30.02F
SISSETON         N/A     71  56  58 SW18      29.92F
$$

SDZ017-020-022-023-036>040-048>070-281400-
SOUTHEAST SOUTH DAKOTA

CITY           SKY/WX    TMP DP  RH WIND       PRES   REMARKS
SIOUX FALLS    CLOUDY    67  53  61 S13       30.02S
HURON            N/A    N/A N/A N/A MISG      29.95F
CHAMBERLAIN    PTSUNNY   65  59  82 S12       29.93F
MITCHELL       PTSUNNY   65  57  75 SE13      29.98S
YANKTON        CLOUDY    66  54  63 S12       30.00S
$$

ABBREVIATIONS USED IN REMARKS
   TC - TEMPERATURE IN CELSIUS
  WCI - WIND CHILL INDEX
   HX - HEAT INDEX
  VSB - VISIBILITY




USA.gov is the U.S. government's official web portal to all federal, state and local government web resources and services.